FLOCK 3P-37

Last updated on Wed Feb 14 2018 16:20:16 GMT+0000 (Coordinated Universal Time)

1 41953U 17008F 18044.92304034 .00002315 00000-0 96951-4 0 9995 2 41953 97.4662 110.7332 0009182 89.9694 270.2595 15.24535637 55359

Satellite not in orbit

FLOCK 3P-37